TimeEST,TemperatureF,Dew PointF,Humidity,Sea Level PressureIn,VisibilityMPH,Wind Direction,Wind SpeedMPH,Gust SpeedMPH,PrecipitationIn,Events,Conditions,WindDirDegrees,DateUTC
12:15 AM,35.2,20.1,54,30.02,10.0,Calm,Calm,-,N/A,,Overcast,0,2013-02-09 05:15:00
12:35 AM,36.0,18.9,50,30.02,10.0,West,5.8,-,N/A,,Mostly Cloudy,280,2013-02-09 05:35:00
12:55 AM,35.8,18.5,50,30.03,10.0,NW,13.8,-,N/A,,Scattered Clouds,310,2013-02-09 05:55:00
1:15 AM,35.1,18.3,51,30.03,10.0,NW,20.7,27.6,N/A,,Clear,310,2013-02-09 06:15:00
1:35 AM,34.5,18.5,52,30.04,10.0,WNW,11.5,19.6,N/A,,Clear,300,2013-02-09 06:35:00
1:55 AM,34.3,18.1,52,30.05,10.0,WNW,17.3,25.3,N/A,,Clear,290,2013-02-09 06:55:00
2:15 AM,33.8,18.1,53,30.06,10.0,WNW,11.5,21.9,N/A,,Clear,290,2013-02-09 07:15:00
2:35 AM,33.6,17.6,52,30.07,10.0,WNW,9.2,21.9,N/A,,Clear,290,2013-02-09 07:35:00
2:55 AM,33.1,17.6,53,30.08,10.0,WNW,6.9,16.1,N/A,,Clear,290,2013-02-09 07:55:00
3:15 AM,33.1,16.3,50,30.07,10.0,NW,18.4,24.2,N/A,,Clear,320,2013-02-09 08:15:00
3:35 AM,32.7,15.8,50,30.08,10.0,NW,11.5,20.7,N/A,,Clear,310,2013-02-09 08:35:00
3:55 AM,32.9,14.9,48,30.09,10.0,NNW,10.4,21.9,N/A,,Clear,340,2013-02-09 08:55:00
4:15 AM,31.1,16.0,54,30.10,10.0,NNE,5.8,-,N/A,,Clear,30,2013-02-09 09:15:00
4:35 AM,31.5,15.8,52,30.10,10.0,North,5.8,-,N/A,,Clear,350,2013-02-09 09:35:00
4:55 AM,29.5,15.6,56,30.11,10.0,NNE,4.6,-,N/A,,Clear,30,2013-02-09 09:55:00
5:15 AM,31.6,14.2,49,30.11,10.0,NNW,6.9,-,N/A,,Clear,330,2013-02-09 10:15:00
5:35 AM,30.2,14.2,51,30.11,10.0,Calm,Calm,-,N/A,,Clear,0,2013-02-09 10:35:00
5:55 AM,31.1,14.5,50,30.12,10.0,Calm,Calm,-,N/A,,Clear,0,2013-02-09 10:55:00
6:15 AM,30.9,14.0,50,30.14,10.0,Calm,Calm,-,N/A,,Clear,0,2013-02-09 11:15:00
6:35 AM,30.6,13.8,50,30.15,10.0,Calm,Calm,-,N/A,,Clear,0,2013-02-09 11:35:00
6:55 AM,28.4,14.0,55,30.16,10.0,NNE,4.6,-,N/A,,Clear,20,2013-02-09 11:55:00
7:15 AM,29.5,14.0,53,30.18,10.0,NW,4.6,-,N/A,,Clear,310,2013-02-09 12:15:00
7:35 AM,28.6,14.0,54,30.20,10.0,Calm,Calm,-,N/A,,Clear,0,2013-02-09 12:35:00
7:55 AM,29.3,14.7,55,30.21,10.0,Calm,Calm,-,N/A,,Clear,0,2013-02-09 12:55:00
8:15 AM,30.7,15.4,53,30.22,10.0,North,6.9,-,N/A,,Clear,10,2013-02-09 13:15:00
8:35 AM,32.0,14.7,49,30.22,10.0,North,10.4,-,N/A,,Clear,360,2013-02-09 13:35:00
8:55 AM,32.4,14.2,47,30.22,10.0,North,13.8,-,N/A,,Clear,350,2013-02-09 13:55:00
9:15 AM,33.4,14.0,45,30.23,10.0,NNW,12.7,-,N/A,,Clear,330,2013-02-09 14:15:00
9:35 AM,34.0,11.8,40,30.23,10.0,NNW,18.4,23.0,N/A,,Clear,340,2013-02-09 14:35:00
9:55 AM,34.7,11.5,38,30.24,10.0,North,16.1,20.7,N/A,,Clear,350,2013-02-09 14:55:00
10:15 AM,36.3,12.0,37,30.25,10.0,North,8.1,-,N/A,,Clear,360,2013-02-09 15:15:00
10:35 AM,37.2,10.9,34,30.25,10.0,North,10.4,-,N/A,,Clear,350,2013-02-09 15:35:00
10:55 AM,37.9,11.3,33,30.26,10.0,North,11.5,-,N/A,,Clear,350,2013-02-09 15:55:00
11:15 AM,38.7,11.1,32,30.26,10.0,North,9.2,-,N/A,,Clear,350,2013-02-09 16:15:00
11:35 AM,40.1,10.8,30,30.26,10.0,NNW,9.2,-,N/A,,Clear,330,2013-02-09 16:35:00
11:55 AM,41.2,10.6,29,30.26,10.0,NNW,11.5,-,N/A,,Clear,330,2013-02-09 16:55:00
12:15 PM,41.4,9.9,28,30.25,10.0,NNW,8.1,-,N/A,,Clear,330,2013-02-09 17:15:00
12:35 PM,42.3,9.9,27,30.25,10.0,NW,8.1,-,N/A,,Clear,320,2013-02-09 17:35:00
12:55 PM,42.8,9.7,26,30.25,10.0,NW,11.5,-,N/A,,Clear,310,2013-02-09 17:55:00
1:15 PM,43.5,9.1,25,30.25,10.0,NW,6.9,-,N/A,,Clear,320,2013-02-09 18:15:00
1:35 PM,44.1,9.3,24,30.25,10.0,NNE,8.1,-,N/A,,Clear,20,2013-02-09 18:35:00
1:55 PM,45.1,9.0,23,30.25,10.0,NNW,6.9,-,N/A,,Clear,330,2013-02-09 18:55:00
2:15 PM,45.5,9.5,23,30.25,10.0,NNE,3.5,-,N/A,,Clear,20,2013-02-09 19:15:00
2:35 PM,45.7,8.4,22,30.25,10.0,NW,9.2,-,N/A,,Clear,320,2013-02-09 19:35:00
2:55 PM,46.0,8.8,22,30.25,10.0,NW,4.6,-,N/A,,Clear,310,2013-02-09 19:55:00
3:15 PM,46.0,9.1,22,30.25,10.0,WNW,8.1,-,N/A,,Clear,300,2013-02-09 20:15:00
3:35 PM,46.4,9.0,22,30.25,10.0,NNW,4.6,-,N/A,,Clear,340,2013-02-09 20:35:00
3:55 PM,46.6,8.8,22,30.26,10.0,North,6.9,-,N/A,,Clear,10,2013-02-09 20:55:00
4:15 PM,45.9,8.2,22,30.26,10.0,North,5.8,-,N/A,,Clear,350,2013-02-09 21:15:00
4:35 PM,45.9,9.0,22,30.27,10.0,North,4.6,-,N/A,,Clear,10,2013-02-09 21:35:00
4:55 PM,45.5,9.5,23,30.28,10.0,North,6.9,-,N/A,,Clear,350,2013-02-09 21:55:00
5:15 PM,43.7,11.8,27,30.28,10.0,NNE,4.6,-,N/A,,Clear,30,2013-02-09 22:15:00
5:35 PM,40.5,12.2,32,30.28,10.0,NNE,4.6,-,N/A,,Clear,30,2013-02-09 22:35:00
5:55 PM,37.0,11.5,35,30.29,10.0,ENE,5.8,-,N/A,,Clear,60,2013-02-09 22:55:00
6:15 PM,37.6,10.2,32,30.30,10.0,NNE,6.9,-,N/A,,Clear,30,2013-02-09 23:15:00
6:35 PM,34.9,9.5,35,30.31,10.0,NE,5.8,-,N/A,,Clear,50,2013-02-09 23:35:00
6:55 PM,36.0,10.0,34,30.30,10.0,NNE,8.1,-,N/A,,Clear,30,2013-02-09 23:55:00
7:15 PM,37.8,8.6,30,30.31,10.0,NNE,5.8,-,N/A,,Clear,20,2013-02-10 00:15:00
7:35 PM,36.3,9.3,33,30.31,10.0,North,4.6,-,N/A,,Clear,360,2013-02-10 00:35:00
7:55 PM,34.3,9.9,36,30.32,10.0,Calm,Calm,-,N/A,,Clear,0,2013-02-10 00:55:00
8:15 PM,30.2,12.7,48,30.33,10.0,Calm,Calm,-,N/A,,Clear,0,2013-02-10 01:15:00
8:35 PM,30.6,13.8,50,30.34,10.0,Calm,Calm,-,N/A,,Clear,0,2013-02-10 01:35:00
8:55 PM,29.1,13.8,53,30.34,10.0,Calm,Calm,-,N/A,,Clear,0,2013-02-10 01:55:00
9:15 PM,27.5,15.3,60,30.34,10.0,Calm,Calm,-,N/A,,Clear,0,2013-02-10 02:15:00
9:35 PM,27.3,15.8,62,30.35,10.0,Calm,Calm,-,N/A,,Clear,0,2013-02-10 02:35:00
9:55 PM,26.6,15.6,63,30.36,10.0,Calm,Calm,-,N/A,,Clear,0,2013-02-10 02:55:00
10:15 PM,26.4,15.8,64,30.36,10.0,Calm,Calm,-,N/A,,Clear,0,2013-02-10 03:15:00
10:35 PM,26.1,15.3,64,30.36,10.0,Calm,Calm,-,N/A,,Clear,0,2013-02-10 03:35:00
10:55 PM,25.5,14.9,64,30.36,10.0,Calm,Calm,-,N/A,,Clear,0,2013-02-10 03:55:00
11:15 PM,23.9,14.9,69,30.36,10.0,Calm,Calm,-,N/A,,Clear,0,2013-02-10 04:15:00
11:35 PM,22.6,15.3,73,30.36,10.0,Calm,Calm,-,N/A,,Clear,0,2013-02-10 04:35:00
11:55 PM,23.5,15.6,72,30.36,10.0,Calm,Calm,-,N/A,,Clear,0,2013-02-10 04:55:00